Location: Hermaringen
(48.5952°N, 10.2585°E)
Time: 10:33:17
(UTC+00:00)

Courier 1B - Pass Details

Date: 23 February 2026
Orbit: 962 x 1208 km, 28.3° (Epoch: 7 March)

Event Time Altitude Azimuth Distance (km) Brightness Sun altitude
Rises 20:05:21 0° 240° (WSW) 3,877 11.1 -31.9°
Reaches altitude 10° 20:10:01 10° 213° (SSW) 2,981 10.1 -32.6°
Enters shadow 20:11:32 12° 201° (SSW) 2,853 9.9 -32.9°
Maximum altitude 20:12:51 12° 190° (S) 2,827 - -33.1°
Drops below altitude 10° 20:15:43 10° 168° (SSE) 3,046 - -33.5°
Sets 20:20:38 0° 141° (SE) 4,053 - -34.2°
